This demonstration page uses our WeatherBlox Daily Observations layout. Learn more.

Left ArrowRight Arrow

39.29038, -76.61219

Hourly Observations for November 18, 2016

Temp ( °F °C ) Dew Point ( °F °C ) Humidity (%) Winds ( mph kmh ) Pressure ( in mb ) Visibility ( mi km ) Precip ( " mm )
12:54 am 00:54 undefined 50 10 35 1.7 57 57 undefined N/A 30.14 1021 N/A 0.00 0.00
1:54 am 01:54 undefined 48 8.9 34 1.1 58 58 undefined N/A 30.14 1021 N/A 0.00 0.00
2:54 am 02:54 undefined 47 8.3 34 1.1 61 61 undefined N/A 30.15 1021 N/A 0.00 0.00
3:54 am 03:54 undefined 46 7.8 34 1.1 63 63 undefined N/A 30.15 1021 N/A 0.00 0.00
4:54 am 04:54 undefined 46 7.8 33 0.6 61 61 undefined N/A 30.15 1021 N/A 0.00 0.00
5:54 am 05:54 undefined 45 7.2 33 0.6 63 63 undefined N/A 30.16 1022 N/A 0.00 0.00
6:54 am 06:54 undefined 46 7.8 34 1.1 63 63 undefined N/A 30.18 1022 N/A 0.00 0.00
7:54 am 07:54 undefined 48 8.9 34 1.1 58 58 undefined N/A 30.18 1022 N/A 0.00 0.00
8:54 am 08:54 undefined 53 11.7 34 1.1 48 48 undefined N/A 30.19 1022 N/A 0.00 0.00
9:54 am 09:54 undefined 59 15 36 2.2 42 42 undefined N/A 30.19 1022 N/A 0.00 0.00
10:54 am 10:54 undefined 59 15 38 3.3 46 46 undefined N/A 30.18 1022 N/A 0.00 0.00
11:54 am 11:54 undefined 66 18.9 38 3.3 36 36 undefined N/A 30.14 1021 N/A 0.00 0.00
12:54 pm 12:54 undefined 67 19.4 39 3.9 36 36 undefined N/A 30.11 1020 N/A 0.00 0.00
1:54 pm 13:54 undefined 72 22.2 40 4.4 31 31 undefined N/A 30.09 1019 N/A 0.00 0.00
2:54 pm 14:54 undefined 71 21.7 42 5.6 35 35 undefined N/A 30.08 1019 N/A 0.00 0.00
3:54 pm 15:54 undefined 66 18.9 43 6.1 43 43 undefined N/A 30.08 1019 N/A 0.00 0.00
4:54 pm 16:54 undefined 62 16.7 44 6.7 52 52 undefined N/A 30.07 1018 N/A 0.00 0.00
5:54 pm 17:54 undefined 62 16.7 44 6.7 52 52 undefined N/A 30.07 1018 N/A 0.00 0.00
6:54 pm 18:54 undefined 60 15.6 44 6.7 56 56 undefined N/A 30.08 1019 N/A 0.00 0.00
7:54 pm 19:54 undefined 60 15.6 45 7.2 58 58 undefined N/A 30.07 1018 N/A 0.00 0.00
8:54 pm 20:54 undefined 58 14.4 45 7.2 62 62 undefined N/A 30.07 1018 N/A 0.00 0.00
9:54 pm 21:54 undefined 56 13.3 45 7.2 67 67 undefined N/A 30.06 1018 N/A 0.00 0.00
10:54 pm 22:54 undefined 55 12.8 44 6.7 67 67 undefined N/A 30.06 1018 N/A 0.00 0.00
11:54 pm 23:54 undefined 54 12.2 45 7.2 72 72 undefined N/A 30.05 1018 N/A 0.00 0.00

Powered by AerisWeather